Vertical_Velocity
1 -0 4 0 2 3 1 1 1 0 0 -1 -1 -1 -1 -1 -2 -2 -1 1 -1 -2 -4 -2 1 -0 2 -0 1 2 0 -0
0 -2 2 0 1 1 1 2 1 0 -0 -0 0 -0 -1 -1 -1 -1 -2 -1 -0 -0 -4 -4 0 -1 1 -0 1 0 1 2
1 2 0 -1 -0 0 -0 1 1 1 1 1 1 0 0 -1 -1 -2 -1 -2 -3 -1 -0 -4 -2 -1 -0 -0 -0 -1 0 1
-2 -2 -0 1 0 -0 -0 -0 1 0 0 0 -1 -1 -1 -1 -1 -1 -1 -1 -2 -2 -2 -2 -4 -1 -1 -0 -1 1 -0 -0
1 2 -1 -2 -3 -2 -2 -1 -2 -1 -2 -1 1 0 -2 -1 -0 0 0 -0 -0 -2 -3 -2 -3 -2 -1 -0 -0 -1 0 -0
-0 5 -2 0 -4 -2 -1 3 2 2 2 -0 -2 0 -0 0 -0 0 -1 -2 -2 -2 -2 -2 -3 -4 -2 -1 0 -0 -1 1
-3 -1 6 2 -3 -4 -2 -2 0 1 -0 1 -0 -2 0 1 -0 1 0 -0 -2 -3 -2 -3 -1 -4 -3 -1 -0 -2 -1 -0
1 0 1 -1 1 2 2 -1 -0 3 2 -0 2 -0 -3 -1 0 1 2 0 -1 1 -2 -1 -1 -1 -3 -2 -1 0 -1 -1
84 -2 -0 -3 -2 -3 0 1 -0 -2 0 -1 0 -0 -1 -2 -1 0 0 -3 -4 -1 1 -0 -1 0 0 -2 -2 -1 1 1
-7 3 -1 -1 -1 -3 -0 -2 1 -2 -5 -4 -2 0 0 -1 1 2 -1 -2 -4 4 -1 -0 -3 0 -0 -1 -1 -2 -3 -2
10 4 3 3 5 0 -1 -2 1 2 4 1 -1 -3 -3 -3 -2 1 1 0 1 1 2 -1 -1 1 -0 -0 -0 -3 -3 -2
19 1 4 1 1 2 2 3 3 1 0 1 3 3 3 0 2 1 -2 -1 1 -2 -0 -2 -1 -1 4 -1 2 -1 -4 -1
-1 1 0 -3 -1 -1 1 -0 -1 -1 -2 -1 0 0 2 1 2 2 2 1 2 1 -0 0 2 -1 -0 2 -4 -1 -3 -1
-2 -2 -3 -2 -2 -2 -0 0 3 3 -0 -0 -1 -1 1 0 1 1 -0 1 1 2 -0 -2 0 1 -1 0 -2 4 2 -3
-2 -2 -2 -2 -1 1 -1 -2 1 2 -0 2 0 -3 -3 -3 -2 -1 -1 -1 2 -0 1 -2 2 0 3 -7 0 2 1 -2
0 -0 -2 -4 -5 -2 -3 -1 -0 0 1 3 4 2 4 2 2 1 2 1 0 -0 -2 3 -5 5 -6 3 -3 -6 2 2
-1 -0 -3 -3 1 -0 1 2 -1 2 3 2 0 2 -1 1 -1 -1 1 3 5 3 -1 -3 -2 -3 -2 -1 -2 -2 -0 2
-2 -0 0 -0 -0 -0 -0 -1 1 1 0 0 1 3 4 0 1 2 1 -2 -2 1 3 3 1 -1 -1 -2 1 -4 1 -1
1 -0 2 1 1 -1 -2 -3 -2 -2 -2 -1 -1 1 2 3 4 4 3 1 -1 -1 1 3 2 -2 1 -0 -1 -1 -3 -3
0 -1 -1 -1 -1 -0 -1 -1 0 -1 -2 -0 0 -1 0 0 -4 -2 1 -0 -2 -4 1 3 -0 -0 -1 1 -2 0 -2 0
Height
5799 5798 5797 5795 5794 5793 5792 5791 5791 5790 5789 5788 5787 5786 5784 5784 5783 5783 5783 5782 5782 5782 5784 5786 5787 5789 5789 5791 5793 5794 5797 5799
5791 5790 5789 5787 5786 5784 5783 5782 5782 5780 5780 5779 5778 5777 5776 5776 5775 5774 5774 5774 5775 5775 5776 5777 5779 5781 5782 5783 5785 5787 5788 5791
5784 5782 5779 5778 5776 5775 5774 5773 5772 5770 5770 5770 5769 5768 5768 5767 5767 5766 5766 5766 5766 5767 5768 5769 5771 5772 5773 5775 5776 5778 5780 5782
5776 5774 5771 5769 5767 5766 5765 5764 5763 5762 5761 5761 5760 5759 5759 5758 5757 5757 5757 5757 5756 5757 5758 5759 5761 5762 5763 5764 5766 5769 5771 5774
5767 5764 5762 5759 5758 5756 5754 5753 5753 5752 5752 5751 5750 5749 5749 5748 5748 5748 5747 5747 5747 5747 5747 5748 5750 5751 5752 5753 5755 5757 5760 5764
5759 5756 5753 5751 5748 5747 5746 5745 5744 5744 5743 5742 5741 5740 5739 5738 5738 5737 5737 5737 5736 5736 5736 5737 5738 5739 5740 5741 5743 5745 5748 5752
5749 5748 5747 5744 5740 5737 5737 5736 5735 5734 5733 5732 5731 5730 5729 5727 5727 5726 5726 5725 5725 5725 5725 5726 5727 5727 5729 5730 5732 5734 5736 5739
5743 5740 5738 5736 5734 5732 5730 5728 5726 5725 5723 5721 5720 5718 5717 5715 5715 5714 5713 5712 5712 5712 5713 5714 5715 5717 5719 5720 5722 5725 5727 5730
5727 5732 5730 5727 5725 5723 5721 5720 5718 5715 5713 5711 5709 5708 5706 5705 5704 5703 5702 5701 5701 5700 5702 5703 5705 5706 5708 5710 5713 5715 5718 5722
5728 5726 5723 5721 5718 5716 5715 5713 5710 5707 5705 5701 5699 5698 5696 5695 5694 5693 5692 5691 5691 5691 5692 5693 5694 5696 5698 5700 5702 5706 5708 5712
5722 5716 5717 5715 5712 5709 5707 5704 5700 5698 5695 5692 5688 5685 5683 5682 5680 5680 5679 5679 5679 5679 5681 5681 5683 5685 5686 5689 5691 5694 5697 5700
5714 5711 5708 5704 5703 5701 5698 5694 5690 5686 5681 5678 5676 5673 5670 5668 5666 5666 5665 5665 5665 5666 5668 5669 5670 5672 5674 5676 5679 5681 5684 5686
5706 5703 5699 5696 5695 5691 5686 5681 5677 5673 5668 5663 5659 5657 5655 5653 5652 5651 5651 5651 5651 5652 5653 5655 5657 5658 5661 5663 5665 5669 5672 5675
5701 5698 5694 5689 5685 5681 5675 5670 5666 5662 5656 5651 5646 5642 5640 5638 5636 5635 5634 5635 5636 5637 5638 5639 5642 5644 5646 5649 5653 5659 5661 5663
5694 5690 5685 5680 5674 5670 5665 5660 5655 5651 5644 5639 5634 5628 5624 5621 5619 5618 5618 5619 5619 5619 5620 5622 5625 5629 5633 5636 5640 5645 5649 5652
5687 5682 5676 5670 5665 5660 5653 5648 5642 5637 5631 5626 5621 5615 5611 5607 5604 5601 5600 5600 5601 5602 5604 5605 5607 5612 5614 5622 5625 5631 5636 5641
5680 5674 5669 5663 5657 5650 5644 5638 5632 5626 5620 5613 5607 5602 5596 5592 5589 5586 5584 5583 5584 5586 5587 5588 5592 5594 5599 5606 5610 5615 5623 5629
5673 5668 5663 5656 5649 5642 5635 5628 5621 5613 5606 5599 5592 5586 5581 5576 5572 5569 5567 5565 5566 5568 5570 5573 5576 5579 5583 5588 5595 5601 5609 5616
5668 5661 5655 5649 5642 5634 5626 5617 5609 5600 5591 5583 5576 5569 5562 5556 5552 5549 5547 5545 5546 5547 5550 5555 5559 5563 5568 5574 5579 5586 5594 5603
5662 5656 5649 5643 5634 5625 5615 5605 5596 5585 5575 5565 5557 5550 5544 5538 5532 5529 5525 5523 5524 5525 5527 5532 5539 5545 5551 5559 5566 5572 5579 5590